Find Starlink 34599

NORAD ID: 64919 Int'l Des: 2025-157 Owner: SPXS Country: US Constellation: starlink operational
LEOCIRCULAR

現在のビュー

3D地球を読み込み中...

About Starlink 34599

Starlink 34599 (NORAD 64919) is a starlink constellation satellite (v2 mini) launched Jul 26, 2025 by SPXS of US. It operates in LEO, CIRCULAR orbit with a mass of 575.00 kg.

Starlink 34599について

説明を読み込み中...

次回通過

Passes for default location (London). Set your location on the main map for personalized predictions.

高度履歴

Loading altitude history...

軌道要素

1 64919U 25157R 26195.13923711 .00029312 00000-0 87499-3 0 9996
2 64919 53.1599 117.6149 0001045 97.0118 263.1004 15.34410883 55494
Epoch: Jul 14, 2026 • Age: 14 hours

現在のステータス

高度 464.1 km
遠地点 / 近地点 N/A
速度 7.64 km/s
衛星直下点 -3.43°S, 81.15°W
打ち上げ日 Jul 26, 2025
運用期間 0.9 years
タイプ internet

技術仕様

分類 Payload
質量 575.00 kg
乾燥質量 530.00 kg
総質量 575.00 kg
長さ 0.30 m
直径 4.10 m
スパン 29.00 m
形状 Box + pan
製造者 SPXS
バスタイプ Starlink V2MO
フェーズステータス In Orbit
所有者/国 SPXS/US

Most Searched